Year,Month,Day,Hour,Minute,Value (Times are PST for temperature in C)
2021,04,12,00,00,2.10
2021,04,12,00,01,2.10
2021,04,12,00,02,2.10
2021,04,12,00,03,2.10
2021,04,12,00,04,2.10
2021,04,12,00,05,2.00
2021,04,12,00,06,2.00
2021,04,12,00,07,2.00
2021,04,12,00,08,2.00
2021,04,12,00,09,2.00
2021,04,12,00,10,2.00
2021,04,12,00,11,2.00
2021,04,12,00,12,2.00
2021,04,12,00,13,2.10
2021,04,12,00,14,2.10
2021,04,12,00,15,2.10
2021,04,12,00,16,2.10
2021,04,12,00,17,2.10
2021,04,12,00,18,2.10
2021,04,12,00,19,2.10
2021,04,12,00,20,2.10
2021,04,12,00,21,2.10
2021,04,12,00,22,2.10
2021,04,12,00,23,2.00
2021,04,12,00,24,2.00
2021,04,12,00,25,2.00
2021,04,12,00,26,2.00
2021,04,12,00,27,2.00
2021,04,12,00,28,2.00
2021,04,12,00,29,2.00
2021,04,12,00,30,2.00
2021,04,12,00,31,1.90
2021,04,12,00,32,1.90
2021,04,12,00,33,1.90
2021,04,12,00,34,1.90
2021,04,12,00,35,1.90
2021,04,12,00,36,1.90
2021,04,12,00,37,1.90
2021,04,12,00,38,1.90
2021,04,12,00,39,1.80
2021,04,12,00,40,1.80
2021,04,12,00,41,1.80
2021,04,12,00,42,1.80
2021,04,12,00,43,1.80
2021,04,12,00,44,1.80
2021,04,12,00,45,1.80
2021,04,12,00,46,1.80
2021,04,12,00,47,1.80
2021,04,12,00,48,1.80
2021,04,12,00,49,1.80
2021,04,12,00,50,1.80
2021,04,12,00,51,1.80
2021,04,12,00,52,1.80
2021,04,12,00,53,1.80
2021,04,12,00,54,1.80
2021,04,12,00,55,1.80
2021,04,12,00,56,1.80
2021,04,12,00,57,1.80
2021,04,12,00,58,1.80
2021,04,12,00,59,1.80
2021,04,12,01,00,1.80
2021,04,12,01,01,1.80
2021,04,12,01,02,1.80
2021,04,12,01,03,1.80
2021,04,12,01,04,1.80
2021,04,12,01,05,1.80
2021,04,12,01,06,1.90
2021,04,12,01,07,1.90
2021,04,12,01,08,1.90
2021,04,12,01,09,1.90
2021,04,12,01,10,1.90
2021,04,12,01,11,1.90
2021,04,12,01,12,1.90
2021,04,12,01,13,1.90
2021,04,12,01,14,1.90
2021,04,12,01,15,1.90
2021,04,12,01,16,1.90
2021,04,12,01,17,2.00
2021,04,12,01,18,2.00
2021,04,12,01,19,2.00
2021,04,12,01,20,2.10
2021,04,12,01,21,2.10
2021,04,12,01,22,2.10
2021,04,12,01,23,2.10
2021,04,12,01,24,2.10
2021,04,12,01,25,2.10
2021,04,12,01,26,2.20
2021,04,12,01,27,2.20
2021,04,12,01,28,2.20
2021,04,12,01,29,2.20
2021,04,12,01,30,2.20
2021,04,12,01,31,2.20
2021,04,12,01,32,2.20
2021,04,12,01,33,2.20
2021,04,12,01,34,2.20
2021,04,12,01,35,2.20
2021,04,12,01,36,2.20
2021,04,12,01,37,2.20
2021,04,12,01,38,2.20
2021,04,12,01,39,2.20
2021,04,12,01,40,2.20
2021,04,12,01,41,2.20
2021,04,12,01,42,2.20
2021,04,12,01,43,2.20
2021,04,12,01,44,2.20
2021,04,12,01,45,2.20
2021,04,12,01,46,2.20
2021,04,12,01,47,2.20
2021,04,12,01,48,2.20
2021,04,12,01,49,2.20
2021,04,12,01,50,2.30
2021,04,12,01,51,2.30
2021,04,12,01,52,2.30
2021,04,12,01,53,2.30
2021,04,12,01,54,2.40
2021,04,12,01,55,2.40
2021,04,12,01,56,2.40
2021,04,12,01,57,2.50
2021,04,12,01,58,2.50
2021,04,12,01,59,2.60
2021,04,12,02,00,2.70
2021,04,12,02,01,2.70
2021,04,12,02,02,2.80
2021,04,12,02,03,2.80
2021,04,12,02,04,2.80
2021,04,12,02,05,2.90
2021,04,12,02,06,2.90
2021,04,12,02,07,3.00
2021,04,12,02,08,3.00
2021,04,12,02,09,3.00
2021,04,12,02,10,3.10
2021,04,12,02,11,3.10
2021,04,12,02,12,3.10
2021,04,12,02,13,3.20
2021,04,12,02,14,3.20
2021,04,12,02,15,3.20
2021,04,12,02,16,3.20
2021,04,12,02,17,3.20
2021,04,12,02,18,3.30
2021,04,12,02,19,3.30
2021,04,12,02,20,3.30
2021,04,12,02,21,3.30
2021,04,12,02,22,3.30
2021,04,12,02,23,3.30
2021,04,12,02,24,3.30
2021,04,12,02,25,3.30
2021,04,12,02,26,3.30
2021,04,12,02,27,3.30
2021,04,12,02,28,3.30
2021,04,12,02,29,3.30
2021,04,12,02,30,3.30
2021,04,12,02,31,3.30
2021,04,12,02,32,3.30
2021,04,12,02,33,3.30
2021,04,12,02,34,3.40
2021,04,12,02,35,3.50
2021,04,12,02,36,3.60
2021,04,12,02,37,3.70
2021,04,12,02,38,3.90
2021,04,12,02,39,4.10
2021,04,12,02,40,4.30
2021,04,12,02,41,4.60
2021,04,12,02,42,4.80
2021,04,12,02,43,5.00
2021,04,12,02,44,5.20
2021,04,12,02,45,5.40
2021,04,12,02,46,5.50
2021,04,12,02,47,5.60
2021,04,12,02,48,5.70
2021,04,12,02,49,5.70
2021,04,12,02,50,5.70
2021,04,12,02,51,5.70
2021,04,12,02,52,5.70
2021,04,12,02,53,5.60
2021,04,12,02,54,5.60
2021,04,12,02,55,5.50
2021,04,12,02,56,5.40
2021,04,12,02,57,5.20
2021,04,12,02,58,5.10
2021,04,12,02,59,5.00
2021,04,12,03,00,4.90
2021,04,12,03,01,4.80
2021,04,12,03,02,4.70
2021,04,12,03,03,4.60
2021,04,12,03,04,4.50
2021,04,12,03,05,4.40
2021,04,12,03,06,4.30
2021,04,12,03,07,4.30
2021,04,12,03,08,4.20
2021,04,12,03,09,4.10
2021,04,12,03,10,4.00
2021,04,12,03,11,4.00
2021,04,12,03,12,3.90
2021,04,12,03,13,3.80
2021,04,12,03,14,3.80
2021,04,12,03,15,3.80
2021,04,12,03,16,3.70
2021,04,12,03,17,3.70
2021,04,12,03,18,3.70
2021,04,12,03,19,3.70
2021,04,12,03,20,3.70
2021,04,12,03,21,3.70
2021,04,12,03,22,3.70
2021,04,12,03,23,3.70
2021,04,12,03,24,3.70
2021,04,12,03,25,3.70
2021,04,12,03,26,3.70
2021,04,12,03,27,3.70
2021,04,12,03,28,3.70
2021,04,12,03,29,3.70
2021,04,12,03,30,3.70
2021,04,12,03,31,3.80
2021,04,12,03,32,3.80
2021,04,12,03,33,3.80
2021,04,12,03,34,3.90
2021,04,12,03,35,3.90
2021,04,12,03,36,4.00
2021,04,12,03,37,4.00
2021,04,12,03,38,4.10
2021,04,12,03,39,4.20
2021,04,12,03,40,4.20
2021,04,12,03,41,4.20
2021,04,12,03,42,4.30
2021,04,12,03,43,4.30
2021,04,12,03,44,4.30
2021,04,12,03,45,4.30
2021,04,12,03,46,4.30
2021,04,12,03,47,4.30
2021,04,12,03,48,4.40
2021,04,12,03,49,4.50
2021,04,12,03,50,4.60
2021,04,12,03,51,4.60
2021,04,12,03,52,4.60
2021,04,12,03,53,4.70
2021,04,12,03,54,4.80
2021,04,12,03,55,4.80
2021,04,12,03,56,4.90
2021,04,12,03,57,5.10
2021,04,12,03,58,5.20
2021,04,12,03,59,5.40
2021,04,12,04,00,5.50
2021,04,12,04,01,5.60
2021,04,12,04,02,5.60
2021,04,12,04,03,5.70
2021,04,12,04,04,5.70
2021,04,12,04,08,5.80
2021,04,12,04,09,5.80
2021,04,12,04,10,5.80
2021,04,12,04,11,5.80
2021,04,12,04,12,5.80
2021,04,12,04,13,5.80
2021,04,12,04,14,5.80
2021,04,12,04,15,5.80
2021,04,12,04,16,5.80
2021,04,12,04,17,5.80
2021,04,12,04,18,5.80
2021,04,12,04,19,5.80
2021,04,12,04,20,5.80
2021,04,12,04,21,5.80
2021,04,12,04,22,5.80
2021,04,12,04,23,5.90
2021,04,12,04,24,5.90
2021,04,12,04,25,5.90
2021,04,12,04,26,5.90
2021,04,12,04,27,6.00
2021,04,12,04,28,6.00
2021,04,12,04,29,6.00
2021,04,12,04,30,6.00
2021,04,12,04,31,6.00
2021,04,12,04,32,6.10
2021,04,12,04,33,6.00
2021,04,12,04,34,6.00
2021,04,12,04,35,6.00
2021,04,12,04,36,6.00
2021,04,12,04,37,6.10
2021,04,12,04,38,6.10
2021,04,12,04,39,6.00
2021,04,12,04,40,6.00
2021,04,12,04,41,6.00
2021,04,12,04,42,6.00
2021,04,12,04,43,5.90
2021,04,12,04,44,5.90
2021,04,12,04,45,5.90
2021,04,12,04,46,5.90
2021,04,12,04,47,5.80
2021,04,12,04,48,5.80
2021,04,12,04,49,5.80
2021,04,12,04,50,5.80
2021,04,12,04,51,5.80
2021,04,12,04,52,5.80
2021,04,12,04,53,5.80
2021,04,12,04,54,5.80
2021,04,12,04,55,5.80
2021,04,12,04,56,5.80
2021,04,12,04,57,5.70
2021,04,12,04,58,5.70
2021,04,12,04,59,5.70
2021,04,12,05,00,5.70
2021,04,12,05,01,5.70
2021,04,12,05,02,5.70
2021,04,12,05,03,5.70
2021,04,12,05,04,5.70
2021,04,12,05,05,5.70
2021,04,12,05,06,5.70
2021,04,12,05,07,5.70
2021,04,12,05,08,5.70
2021,04,12,05,09,5.70
2021,04,12,05,10,5.70
2021,04,12,05,11,5.70
2021,04,12,05,12,5.70
2021,04,12,05,13,5.70
2021,04,12,05,14,5.60
2021,04,12,05,15,5.60
2021,04,12,05,16,5.60
2021,04,12,05,17,5.60
2021,04,12,05,18,5.60
2021,04,12,05,19,5.60
2021,04,12,05,20,5.50
2021,04,12,05,21,5.50
2021,04,12,05,22,5.50
2021,04,12,05,23,5.50
2021,04,12,05,24,5.50
2021,04,12,05,25,5.50
2021,04,12,05,26,5.50
2021,04,12,05,27,5.50
2021,04,12,05,28,5.40
2021,04,12,05,29,5.40
2021,04,12,05,30,5.40
2021,04,12,05,31,5.40
2021,04,12,05,32,5.40
2021,04,12,05,33,5.40
2021,04,12,05,34,5.30
2021,04,12,05,35,5.30
2021,04,12,05,36,5.30
2021,04,12,05,37,5.20
2021,04,12,05,38,5.20
2021,04,12,05,39,5.20
2021,04,12,05,40,5.10
2021,04,12,05,41,5.10
2021,04,12,05,42,5.10
2021,04,12,05,43,5.00
2021,04,12,05,44,5.00
2021,04,12,05,45,5.00
2021,04,12,05,46,4.90
2021,04,12,05,47,4.90
2021,04,12,05,48,4.90
2021,04,12,05,49,4.90
2021,04,12,05,50,4.90
2021,04,12,05,51,4.90
2021,04,12,05,52,4.80
2021,04,12,05,53,4.80
2021,04,12,05,54,4.80
2021,04,12,05,55,4.80
2021,04,12,05,56,4.80
2021,04,12,05,57,4.80
2021,04,12,05,58,4.80
2021,04,12,05,59,4.80
2021,04,12,06,00,4.80
2021,04,12,06,01,4.70
2021,04,12,06,02,4.70
2021,04,12,06,03,4.70
2021,04,12,06,04,4.70
2021,04,12,06,05,4.70
2021,04,12,06,06,4.60
2021,04,12,06,07,4.60
2021,04,12,06,08,4.60
2021,04,12,06,09,4.60
2021,04,12,06,10,4.60
2021,04,12,06,11,4.70
2021,04,12,06,12,4.70
2021,04,12,06,13,4.70
2021,04,12,06,14,4.70
2021,04,12,06,15,4.70
2021,04,12,06,16,4.70
2021,04,12,06,17,4.80
2021,04,12,06,18,4.80
2021,04,12,06,19,4.90
2021,04,12,06,20,4.90
2021,04,12,06,21,4.90
2021,04,12,06,22,4.90
2021,04,12,06,23,5.00
2021,04,12,06,24,5.00
2021,04,12,06,25,5.00
2021,04,12,06,26,5.00
2021,04,12,06,27,5.00
2021,04,12,06,28,5.00
2021,04,12,06,29,5.00
2021,04,12,06,30,5.00
2021,04,12,06,31,5.10
2021,04,12,06,32,5.10
2021,04,12,06,33,5.10
2021,04,12,06,34,5.00
2021,04,12,06,35,5.00
2021,04,12,06,36,5.00
2021,04,12,06,37,5.00
2021,04,12,06,38,4.90
2021,04,12,06,39,4.90
2021,04,12,06,40,4.90
2021,04,12,06,41,4.90
2021,04,12,06,42,4.90
2021,04,12,06,43,4.90
2021,04,12,06,44,4.90
2021,04,12,06,45,5.00
2021,04,12,06,46,5.00
2021,04,12,06,47,5.00
2021,04,12,06,48,5.00
2021,04,12,06,49,5.00
2021,04,12,06,50,5.00
2021,04,12,06,51,4.90
2021,04,12,06,52,4.90
2021,04,12,06,53,4.90
2021,04,12,06,54,4.90
2021,04,12,06,55,4.90
2021,04,12,06,56,4.80
2021,04,12,06,57,4.80
2021,04,12,06,58,4.80
2021,04,12,06,59,4.80
2021,04,12,07,00,4.80
2021,04,12,07,01,4.70
2021,04,12,07,02,4.70
2021,04,12,07,03,4.80
2021,04,12,07,04,4.80
2021,04,12,07,05,4.80
2021,04,12,07,06,4.80
2021,04,12,07,07,4.90
2021,04,12,07,08,4.90
2021,04,12,07,09,4.90
2021,04,12,07,10,4.90
2021,04,12,07,11,4.90
2021,04,12,07,12,4.90
2021,04,12,07,13,5.00
2021,04,12,07,14,5.00
2021,04,12,07,15,5.00
2021,04,12,07,16,4.90
2021,04,12,07,17,4.90
2021,04,12,07,18,4.90
2021,04,12,07,19,5.00
2021,04,12,07,20,5.00
2021,04,12,07,21,5.00
2021,04,12,07,22,5.00
2021,04,12,07,23,5.00
2021,04,12,07,24,5.00
2021,04,12,07,25,5.10
2021,04,12,07,26,5.10
2021,04,12,07,27,5.10
2021,04,12,07,28,5.10
2021,04,12,07,29,5.10
2021,04,12,07,30,5.10
2021,04,12,07,31,5.10
2021,04,12,07,32,5.10
2021,04,12,07,33,5.10
2021,04,12,07,34,5.10
2021,04,12,07,35,5.20
2021,04,12,07,36,5.20
2021,04,12,07,37,5.20
2021,04,12,07,38,5.20
2021,04,12,07,39,5.30
2021,04,12,07,40,5.30
2021,04,12,07,41,5.30
2021,04,12,07,42,5.30
2021,04,12,07,43,5.40
2021,04,12,07,44,5.40
2021,04,12,07,45,5.50
2021,04,12,07,46,5.50
2021,04,12,07,47,5.50
2021,04,12,07,48,5.50
2021,04,12,07,49,5.60
2021,04,12,07,50,5.60
2021,04,12,07,51,5.60
2021,04,12,07,52,5.60
2021,04,12,07,53,5.60
2021,04,12,07,54,5.70
2021,04,12,07,55,5.70
2021,04,12,07,56,5.70
2021,04,12,07,57,5.70
2021,04,12,07,58,5.70
2021,04,12,07,59,5.70
2021,04,12,08,00,5.70
2021,04,12,08,01,5.70
2021,04,12,08,02,5.70
2021,04,12,08,03,5.60
2021,04,12,08,04,5.60
2021,04,12,08,05,5.60
2021,04,12,08,06,5.60
2021,04,12,08,07,5.60
2021,04,12,08,08,5.60
2021,04,12,08,09,5.60
2021,04,12,08,10,5.60
2021,04,12,08,11,5.60
2021,04,12,08,12,5.60
2021,04,12,08,13,5.60
2021,04,12,08,14,5.70
2021,04,12,08,15,5.70
2021,04,12,08,16,5.70
2021,04,12,08,17,5.70
2021,04,12,08,18,5.80
2021,04,12,08,19,5.80
2021,04,12,08,20,5.80
2021,04,12,08,21,5.80
2021,04,12,08,22,5.80
2021,04,12,08,23,5.90
2021,04,12,08,24,5.90
2021,04,12,08,25,6.00
2021,04,12,08,26,6.00
2021,04,12,08,27,6.10
2021,04,12,08,28,6.20
2021,04,12,08,29,6.30
2021,04,12,08,30,6.30
2021,04,12,08,31,6.40
2021,04,12,08,32,6.40
2021,04,12,08,33,6.40
2021,04,12,08,34,6.40
2021,04,12,08,35,6.40
2021,04,12,08,36,6.40
2021,04,12,08,37,6.40
2021,04,12,08,38,6.40
2021,04,12,08,39,6.40
2021,04,12,08,40,6.30
2021,04,12,08,41,6.30
2021,04,12,08,42,6.30
2021,04,12,08,43,6.30
2021,04,12,08,44,6.30
2021,04,12,08,45,6.30
2021,04,12,08,46,6.30
2021,04,12,08,47,6.40
2021,04,12,08,48,6.40
2021,04,12,08,49,6.40
2021,04,12,08,50,6.40
2021,04,12,08,51,6.40
2021,04,12,08,52,6.50
2021,04,12,08,53,6.50
2021,04,12,08,54,6.60
2021,04,12,08,55,6.60
2021,04,12,08,56,6.70
2021,04,12,08,57,6.70
2021,04,12,08,58,6.70
2021,04,12,08,59,6.70
2021,04,12,09,00,6.70
2021,04,12,09,01,6.70
2021,04,12,09,02,6.80
2021,04,12,09,03,6.80
2021,04,12,09,04,6.80
2021,04,12,09,05,6.80
2021,04,12,09,06,6.80
2021,04,12,09,07,6.80
2021,04,12,09,08,6.90
2021,04,12,09,09,6.80
2021,04,12,09,10,6.90
2021,04,12,09,11,6.90
2021,04,12,09,12,6.90
2021,04,12,09,13,6.90
2021,04,12,09,14,6.90
2021,04,12,09,15,6.90
2021,04,12,09,16,7.00
2021,04,12,09,17,7.00
2021,04,12,09,18,7.00
2021,04,12,09,19,7.10
2021,04,12,09,20,7.10
2021,04,12,09,21,7.10
2021,04,12,09,22,7.10
2021,04,12,09,23,7.20
2021,04,12,09,24,7.20
2021,04,12,09,25,7.30
2021,04,12,09,26,7.30
2021,04,12,09,27,7.40
2021,04,12,09,28,7.50
2021,04,12,09,29,7.60
2021,04,12,09,30,7.70
2021,04,12,09,31,7.70
2021,04,12,09,32,7.70
2021,04,12,09,33,7.60
2021,04,12,09,34,7.60
2021,04,12,09,35,7.70
2021,04,12,09,36,7.70
2021,04,12,09,37,7.80
2021,04,12,09,38,7.70
2021,04,12,09,39,7.80
2021,04,12,09,40,7.80
2021,04,12,09,41,7.80
2021,04,12,09,42,7.80
2021,04,12,09,43,7.90
2021,04,12,09,44,7.90
2021,04,12,09,45,7.90
2021,04,12,09,46,8.00
2021,04,12,09,47,8.10
2021,04,12,09,48,8.10
2021,04,12,09,49,8.10
2021,04,12,09,50,8.10
2021,04,12,09,51,8.10
2021,04,12,09,52,8.00
2021,04,12,09,53,8.00
2021,04,12,09,54,7.90
2021,04,12,09,55,7.90
2021,04,12,09,56,8.00
2021,04,12,09,57,8.00
2021,04,12,09,58,8.10
2021,04,12,09,59,8.20
2021,04,12,10,00,8.20
2021,04,12,10,01,8.30
2021,04,12,10,02,8.30
2021,04,12,10,03,8.30
2021,04,12,10,04,8.30
2021,04,12,10,05,8.30
2021,04,12,10,06,8.30
2021,04,12,10,07,8.30
2021,04,12,10,08,8.30
2021,04,12,10,09,8.30
2021,04,12,10,10,8.20
2021,04,12,10,11,8.10
2021,04,12,10,12,8.10
2021,04,12,10,13,8.10
2021,04,12,10,14,8.10
2021,04,12,10,15,8.10
2021,04,12,10,16,8.20
2021,04,12,10,17,8.30
2021,04,12,10,18,8.40
2021,04,12,10,19,8.50
2021,04,12,10,20,8.50
2021,04,12,10,21,8.50
2021,04,12,10,22,8.50
2021,04,12,10,23,8.50
2021,04,12,10,24,8.50
2021,04,12,10,25,8.50
2021,04,12,10,26,8.50
2021,04,12,10,27,8.50
2021,04,12,10,28,8.50
2021,04,12,10,29,8.60
2021,04,12,10,30,8.60
2021,04,12,10,31,8.70
2021,04,12,10,32,8.80
2021,04,12,10,33,8.80
2021,04,12,10,34,8.90
2021,04,12,10,35,8.90
2021,04,12,10,36,8.90
2021,04,12,10,37,8.80
2021,04,12,10,38,8.80
2021,04,12,10,39,8.70
2021,04,12,10,40,8.70
2021,04,12,10,41,8.80
2021,04,12,10,42,8.80
2021,04,12,10,43,8.80
2021,04,12,10,44,8.90
2021,04,12,10,45,9.00
2021,04,12,10,46,9.00
2021,04,12,10,47,8.90
2021,04,12,10,48,8.90
2021,04,12,10,49,8.90
2021,04,12,10,50,8.90
2021,04,12,10,51,9.00
2021,04,12,10,52,8.90
2021,04,12,10,53,8.80
2021,04,12,10,54,8.80
2021,04,12,10,55,8.80
2021,04,12,10,56,8.80
2021,04,12,10,57,8.80
2021,04,12,10,58,8.80
2021,04,12,10,59,8.80
2021,04,12,11,00,8.80
2021,04,12,11,01,8.80
2021,04,12,11,02,8.70
2021,04,12,11,03,8.70
2021,04,12,11,04,8.70
2021,04,12,11,05,8.70
2021,04,12,11,06,8.80
2021,04,12,11,07,8.90
2021,04,12,11,08,9.00
2021,04,12,11,09,9.10
2021,04,12,11,10,9.20
2021,04,12,11,11,9.30
2021,04,12,11,12,9.30
2021,04,12,11,13,9.30
2021,04,12,11,14,9.30
2021,04,12,11,15,9.30
2021,04,12,11,16,9.30
2021,04,12,11,17,9.20
2021,04,12,11,18,9.10
2021,04,12,11,19,9.10
2021,04,12,11,20,9.10
2021,04,12,11,21,9.20
2021,04,12,11,22,9.20
2021,04,12,11,23,9.20
2021,04,12,11,24,9.20
2021,04,12,11,25,9.30
2021,04,12,11,26,9.30
2021,04,12,11,27,9.30
2021,04,12,11,28,9.30
2021,04,12,11,29,9.20
2021,04,12,11,30,9.10
2021,04,12,11,31,9.00
2021,04,12,11,32,9.00
2021,04,12,11,33,9.10
2021,04,12,11,34,9.20
2021,04,12,11,35,9.20
2021,04,12,11,36,9.10
2021,04,12,11,37,9.10
2021,04,12,11,38,9.20
2021,04,12,11,39,9.20
2021,04,12,11,40,9.30
2021,04,12,11,41,9.30
2021,04,12,11,42,9.40
2021,04,12,11,43,9.50
2021,04,12,11,44,9.60
2021,04,12,11,45,9.70
2021,04,12,11,46,9.80
2021,04,12,11,47,9.90
2021,04,12,11,48,9.90
2021,04,12,11,49,10.00
2021,04,12,11,50,10.00
2021,04,12,11,51,10.00
2021,04,12,11,52,9.90
2021,04,12,11,53,9.70
2021,04,12,11,54,9.60
2021,04,12,11,55,9.60
2021,04,12,11,56,9.60
2021,04,12,11,57,9.70
2021,04,12,11,58,9.80
2021,04,12,11,59,9.90
2021,04,12,12,00,9.90
2021,04,12,12,01,9.90
2021,04,12,12,02,10.00
2021,04,12,12,03,10.00
2021,04,12,12,04,10.00
2021,04,12,12,05,10.00
2021,04,12,12,06,10.00
2021,04,12,12,07,10.10
2021,04,12,12,08,10.10
2021,04,12,12,09,10.10
2021,04,12,12,10,10.10
2021,04,12,12,11,10.00
2021,04,12,12,12,9.90
2021,04,12,12,13,10.00
2021,04,12,12,14,10.10
2021,04,12,12,15,10.10
2021,04,12,12,16,10.20
2021,04,12,12,17,10.30
2021,04,12,12,18,10.40
2021,04,12,12,19,10.30
2021,04,12,12,20,10.10
2021,04,12,12,21,9.90
2021,04,12,12,22,9.70
2021,04,12,12,23,9.60
2021,04,12,12,24,9.60
2021,04,12,12,25,9.60
2021,04,12,12,26,9.50
2021,04,12,12,27,9.50
2021,04,12,12,28,9.50
2021,04,12,12,29,9.50
2021,04,12,12,30,9.50
2021,04,12,12,31,9.60
2021,04,12,12,32,9.60
2021,04,12,12,33,9.70
2021,04,12,12,34,9.70
2021,04,12,12,35,9.70
2021,04,12,12,36,9.70
2021,04,12,12,37,9.70
2021,04,12,12,38,9.70
2021,04,12,12,39,9.80
2021,04,12,12,40,9.80
2021,04,12,12,41,9.90
2021,04,12,12,42,9.90
2021,04,12,12,43,9.90
2021,04,12,12,44,9.90
2021,04,12,12,45,9.90
2021,04,12,12,46,9.90
2021,04,12,12,47,9.90
2021,04,12,12,48,9.90
2021,04,12,12,49,9.90
2021,04,12,12,50,10.10
2021,04,12,12,51,10.10
2021,04,12,12,52,10.10
2021,04,12,12,53,10.00
2021,04,12,12,54,10.00
2021,04,12,12,55,10.00
2021,04,12,12,56,10.10
2021,04,12,12,57,10.30
2021,04,12,12,58,10.50
2021,04,12,12,59,10.60
2021,04,12,13,00,10.70
2021,04,12,13,01,10.70
2021,04,12,13,02,10.60
2021,04,12,13,03,10.60
2021,04,12,13,04,10.50
2021,04,12,13,05,10.40
2021,04,12,13,06,10.40
2021,04,12,13,07,10.40
2021,04,12,13,08,10.40
2021,04,12,13,09,10.40
2021,04,12,13,10,10.40
2021,04,12,13,11,10.40
2021,04,12,13,12,10.40
2021,04,12,13,13,10.30
2021,04,12,13,14,10.30
2021,04,12,13,15,10.30
2021,04,12,13,16,10.40
2021,04,12,13,17,10.50
2021,04,12,13,18,10.60
2021,04,12,13,19,10.50
2021,04,12,13,20,10.50
2021,04,12,13,21,10.40
2021,04,12,13,22,10.40
2021,04,12,13,23,10.50
2021,04,12,13,24,10.60
2021,04,12,13,25,10.70
2021,04,12,13,26,10.80
2021,04,12,13,27,11.00
2021,04,12,13,28,11.10
2021,04,12,13,29,11.20
2021,04,12,13,30,11.20
2021,04,12,13,31,11.30
2021,04,12,13,32,11.20
2021,04,12,13,33,11.20
2021,04,12,13,34,11.20
2021,04,12,13,35,11.20
2021,04,12,13,36,11.20
2021,04,12,13,37,11.10
2021,04,12,13,38,11.00
2021,04,12,13,39,11.00
2021,04,12,13,40,10.90
2021,04,12,13,41,10.80
2021,04,12,13,42,10.70
2021,04,12,13,43,10.60
2021,04,12,13,44,10.60
2021,04,12,13,45,10.60
2021,04,12,13,46,10.60
2021,04,12,13,47,10.70
2021,04,12,13,48,10.70
2021,04,12,13,49,10.70
2021,04,12,13,50,10.80
2021,04,12,13,51,10.90
2021,04,12,13,52,10.80
2021,04,12,13,53,10.80
2021,04,12,13,54,10.80
2021,04,12,13,55,10.70
2021,04,12,13,56,10.70
2021,04,12,13,57,10.70
2021,04,12,13,58,10.70
2021,04,12,13,59,10.70
2021,04,12,14,00,10.80
2021,04,12,14,01,10.90
2021,04,12,14,02,11.00
2021,04,12,14,03,10.90
2021,04,12,14,04,10.90
2021,04,12,14,05,10.80
2021,04,12,14,06,10.70
2021,04,12,14,07,10.70
2021,04,12,14,08,10.70
2021,04,12,14,09,10.70
2021,04,12,14,10,10.60
2021,04,12,14,11,10.60
2021,04,12,14,12,10.60
2021,04,12,14,13,10.70
2021,04,12,14,14,10.70
2021,04,12,14,15,10.80
2021,04,12,14,16,10.90
2021,04,12,14,17,11.00
2021,04,12,14,18,11.10
2021,04,12,14,19,11.10
2021,04,12,14,20,11.10
2021,04,12,14,21,11.10
2021,04,12,14,22,11.00
2021,04,12,14,23,11.00
2021,04,12,14,24,11.00
2021,04,12,14,25,11.00
2021,04,12,14,26,11.10
2021,04,12,14,27,11.20
2021,04,12,14,28,11.30
2021,04,12,14,29,11.40
2021,04,12,14,30,11.60
2021,04,12,14,31,11.70
2021,04,12,14,32,11.80
2021,04,12,14,33,11.90
2021,04,12,14,34,11.90
2021,04,12,14,35,11.80
2021,04,12,14,36,11.60
2021,04,12,14,37,11.60
2021,04,12,14,38,11.60
2021,04,12,14,39,11.70
2021,04,12,14,40,11.80
2021,04,12,14,41,11.80
2021,04,12,14,42,11.80
2021,04,12,14,43,11.60
2021,04,12,14,44,11.50
2021,04,12,14,45,11.50
2021,04,12,14,46,11.50
2021,04,12,14,47,11.50
2021,04,12,14,48,11.40
2021,04,12,14,49,11.40
2021,04,12,14,50,11.40
2021,04,12,14,51,11.40
2021,04,12,14,52,11.50
2021,04,12,14,53,11.60
2021,04,12,14,54,11.70
2021,04,12,14,55,11.80
2021,04,12,14,56,11.80
2021,04,12,14,57,11.80
2021,04,12,14,58,11.90
2021,04,12,14,59,12.10
2021,04,12,15,00,12.20
2021,04,12,15,01,12.30
2021,04,12,15,02,12.30
2021,04,12,15,03,12.20
2021,04,12,15,04,12.20
2021,04,12,15,05,12.10
2021,04,12,15,06,12.10
2021,04,12,15,07,12.00
2021,04,12,15,08,12.10
2021,04,12,15,09,12.10
2021,04,12,15,10,12.10
2021,04,12,15,11,12.10
2021,04,12,15,12,12.00
2021,04,12,15,13,12.00
2021,04,12,15,14,12.00
2021,04,12,15,15,12.00
2021,04,12,15,16,12.00
2021,04,12,15,17,12.10
2021,04,12,15,18,12.20
2021,04,12,15,19,12.30
2021,04,12,15,20,12.40
2021,04,12,15,21,12.50
2021,04,12,15,22,12.50
2021,04,12,15,23,12.60
2021,04,12,15,24,12.60
2021,04,12,15,25,12.70
2021,04,12,15,26,12.80
2021,04,12,15,27,12.80
2021,04,12,15,28,12.90
2021,04,12,15,29,12.90
2021,04,12,15,30,12.90
2021,04,12,15,31,12.90
2021,04,12,15,32,12.90
2021,04,12,15,33,13.00
2021,04,12,15,34,13.20
2021,04,12,15,35,13.20
2021,04,12,15,36,13.10
2021,04,12,15,37,13.00
2021,04,12,15,38,12.90
2021,04,12,15,39,12.80
2021,04,12,15,40,12.80
2021,04,12,15,41,12.80
2021,04,12,15,42,12.80
2021,04,12,15,43,12.70
2021,04,12,15,44,12.60
2021,04,12,15,45,12.70
2021,04,12,15,46,12.70
2021,04,12,15,47,12.80
2021,04,12,15,48,12.80
2021,04,12,15,49,12.90
2021,04,12,15,50,12.90
2021,04,12,15,51,12.80
2021,04,12,15,52,12.70
2021,04,12,15,53,12.70
2021,04,12,15,54,12.60
2021,04,12,15,55,12.60
2021,04,12,15,56,12.60
2021,04,12,15,57,12.60
2021,04,12,15,58,12.60
2021,04,12,15,59,12.70
2021,04,12,16,00,12.70
2021,04,12,16,01,12.80
2021,04,12,16,02,12.90
2021,04,12,16,03,13.00
2021,04,12,16,04,13.20
2021,04,12,16,05,13.30
2021,04,12,16,06,13.30
2021,04,12,16,07,13.30
2021,04,12,16,08,13.20
2021,04,12,16,09,13.20
2021,04,12,16,10,13.10
2021,04,12,16,11,13.10
2021,04,12,16,12,13.10
2021,04,12,16,13,13.10
2021,04,12,16,14,13.10
2021,04,12,16,15,13.10
2021,04,12,16,16,13.20
2021,04,12,16,17,13.20
2021,04,12,16,18,13.10
2021,04,12,16,19,13.10
2021,04,12,16,20,13.10
2021,04,12,16,21,13.00
2021,04,12,16,22,13.10
2021,04,12,16,23,13.10
2021,04,12,16,24,13.10
2021,04,12,16,25,13.00
2021,04,12,16,26,13.00
2021,04,12,16,27,12.90
2021,04,12,16,28,12.90
2021,04,12,16,29,12.90
2021,04,12,16,30,13.00
2021,04,12,16,31,13.00
2021,04,12,16,32,13.10
2021,04,12,16,33,13.10
2021,04,12,16,34,13.10
2021,04,12,16,35,13.10
2021,04,12,16,36,13.10
2021,04,12,16,37,13.10
2021,04,12,16,38,13.10
2021,04,12,16,39,13.10
2021,04,12,16,40,13.10
2021,04,12,16,41,13.10
2021,04,12,16,42,13.10
2021,04,12,16,43,13.10
2021,04,12,16,44,13.10
2021,04,12,16,45,13.20
2021,04,12,16,46,13.20
2021,04,12,16,47,13.30
2021,04,12,16,48,13.40
2021,04,12,16,49,13.40
2021,04,12,16,50,13.40
2021,04,12,16,51,13.40
2021,04,12,16,52,13.40
2021,04,12,16,53,13.40
2021,04,12,16,54,13.40
2021,04,12,16,55,13.40
2021,04,12,16,56,13.40
2021,04,12,16,57,13.40
2021,04,12,16,58,13.50
2021,04,12,16,59,13.50
2021,04,12,17,00,13.60
2021,04,12,17,01,13.50
2021,04,12,17,02,13.50
2021,04,12,17,03,13.40
2021,04,12,17,04,13.40
2021,04,12,17,05,13.30
2021,04,12,17,06,13.30
2021,04,12,17,07,13.30
2021,04,12,17,08,13.30
2021,04,12,17,09,13.30
2021,04,12,17,10,13.40
2021,04,12,17,11,13.40
2021,04,12,17,12,13.40
2021,04,12,17,13,13.40
2021,04,12,17,14,13.40
2021,04,12,17,15,13.50
2021,04,12,17,16,13.60
2021,04,12,17,17,13.50
2021,04,12,17,18,13.40
2021,04,12,17,19,13.40
2021,04,12,17,20,13.40
2021,04,12,17,21,13.40
2021,04,12,17,22,13.40
2021,04,12,17,23,13.40
2021,04,12,17,24,13.40
2021,04,12,17,25,13.40
2021,04,12,17,26,13.40
2021,04,12,17,27,13.30
2021,04,12,17,28,13.30
2021,04,12,17,29,13.30
2021,04,12,17,30,13.30
2021,04,12,17,31,13.30
2021,04,12,17,32,13.30
2021,04,12,17,33,13.30
2021,04,12,17,34,13.40
2021,04,12,17,35,13.40
2021,04,12,17,36,13.40
2021,04,12,17,37,13.50
2021,04,12,17,38,13.50
2021,04,12,17,39,13.60
2021,04,12,17,40,13.50
2021,04,12,17,41,13.50
2021,04,12,17,42,13.40
2021,04,12,17,43,13.40
2021,04,12,17,44,13.30
2021,04,12,17,45,13.30
2021,04,12,17,46,13.30
2021,04,12,17,47,13.30
2021,04,12,17,48,13.30
2021,04,12,17,49,13.30
2021,04,12,17,50,13.30
2021,04,12,17,51,13.30
2021,04,12,17,52,13.30
2021,04,12,17,53,13.30
2021,04,12,17,54,13.20